カタログに戻る

COSMOS 2251 DEB

運用中LEO
NORAD 33805·DEBRIS·🇷🇺 Russia

打ち上げ Jun 16, 1993 から Plesetsk Cosmodrome

Loading…

次のパス (今後24時間)

TLE

最新Source: Space-Track

元期: Sep 14, 2026, 09:58 UTC

1 33805U 93036AW  26257.41539771  .00000526  00000-0  11730-3 0  9997
2 33805  74.0308 146.6340 0061833 264.8665  94.5440 14.58413796932452

AllMySatでCOSMOS 2251 DEBをリアルタイム追跡

Download on the App Store